Regional Weather Roundup
Issued by NWS San Diego, CA

Current Version | Previous Version | Text Only | Print | Product List | Glossary On
Versions: 1 2 3 4 5 6 7 8 9 10 11 12 13 14 15 16 17 18 19 20 21 22 23 24 25 26 27 28
000
ASUS46 KSGX 300911
RWRSGX

SAN DIEGO HOURLY WEATHER ROUNDUP
NATIONAL WEATHER SERVICE SAN DIEGO CA
200 AM PDT THU MAR 30 2017

NOTE: "FAIR" INDICATES FEW OR NO CLOUDS BELOW 12,000 FEET WITH NO
SIGNIFICANT WEATHER AND/OR OBSTRUCTIONS TO VISIBILITY.

CAZ042-043-060-061-PZZ750-775-301000-

GREATER SAN DIEGO AREA

CITY           SKY/WX    TMP DP  RH WIND       PRES   REMARKS
SAN DIEGO AP   PTCLDY    62  56  80 S5        30.02F
NATIONAL CITY    N/A     58  48  68 CALM      30.01F
CHULA VISTA      N/A     54  47  77 CALM      29.94S
IMPERIAL BEACH CLEAR     51  45  79 CALM      30.02S
BROWN FIELD    CLEAR     54  40  59 CALM      30.01F
MIRAMAR MCAS   CLEAR     55  41  59 E6        30.00F
MONTGOMERY FLD CLEAR     58  47  66 CALM      30.01F

$$

NORTH SAN DIEGO COUNTY

CITY           SKY/WX    TMP DP  RH WIND       PRES   REMARKS
CAMP PENDLETON CLEAR     50  46  86 N3        30.01F
OCEANSIDE AP   CLEAR     50  48  93 CALM      30.00F
OCEANSIDE HBR    N/A     55  49  79 SE5       30.02F
VISTA            N/A     53  46  77 CALM      29.99F
CARLSBAD       CLEAR     58  46  64 E5        30.00F
DEL MAR          N/A     56  50  79 CALM      30.02F
LA JOLLA SCRIP   N/A     60  53  78 E8        29.99F
FALLBROOK        N/A     57  48  73 CALM      30.00F
ESCONDIDO        N/A     56  41  56 CALM      30.02F
SAN MARCOS       N/A     59  41  51 CALM      30.01F
POWAY            N/A     50  40  67 CALM      30.03S

$$

EAST SAN DIEGO COUNTY

CITY           SKY/WX    TMP DP  RH WIND       PRES   REMARKS
RAMONA         CLEAR     45  41  86 CALM      30.03F
SANTEE LAKES     N/A     50  43  76 CALM      30.01F
LA MESA          N/A     58  40  52 CALM      29.95S
JAMUL            N/A     52  38  59 CALM      30.01F
DESCANSO N       N/A     45  32  58 NE6       29.97F
CAMPO            N/A     40  33  76 NE6       30.04F

$$

ORANGE COUNTY AND THE LOS ANGELES BASIN

CITY           SKY/WX    TMP DP  RH WIND       PRES   REMARKS
JOHN WAYNE AP  CLEAR     61  50  67 NE3       30.00S
LAKE FOREST FR   N/A     60  33  35 CALM      29.88S
HUNTINGTON BCH   N/A     56  54  94 SW1       30.01F
LOS ALAMITOS   FAIR      55  52  92 CALM      29.99F
FULLERTON      CLEAR     60  54  80 E3        29.99F
LONG BEACH     CLEAR     59  55  87 CALM      30.00S
L.A. AP        CLEAR     61  57  87 CALM      29.99F
L.A. DOWNTOWN  CLEAR     61  52  72 CALM      29.99F

$$

THE INLAND EMPIRE

CITY           SKY/WX    TMP DP  RH WIND       PRES   REMARKS
CORONA         CLEAR     47  40  76 CALM      30.01S
CHINO          CLEAR     57  45  64 CALM      30.02S
ONTARIO        CLEAR     59  39  47 CALM      30.01S
SAN BERNARDINO FAIR      57  37  48 CALM      30.02S
RIVERSIDE AP   CLEAR     58  42  55 SE3       30.01S
MORENO VALLEY    N/A     58  41  52 CALM      28.14F
MARCH ARB      CLEAR     46  40  78 CALM      30.02S
HORSETHIEF CYN   N/A     57  30  36 CALM      30.01S
PERRIS           N/A     57  42  58 CALM      30.04S
HEMET EAST       N/A     58  29  33 CALM      30.04F
FRENCH VALLEY  FAIR      52  43  71 CALM      30.03S
TEMECULA         N/A     55  45  68 CALM      30.06F

$$

SAN BERNARDINO AND RIVERSIDE COUNTY MOUNTAINS

CITY           SKY/WX    TMP DP  RH WIND       PRES   REMARKS
BIG BEAR AP    CLEAR     34  27  75 SW3       30.18F
ANGELUS OAKS     N/A     46  29  52 CALM      29.93F
PINE COVE        N/A     49  26  40 N3        30.00F

$$

SOUTHERN DESERT INCLUDING THE COACHELLA VALLEY

CITY           SKY/WX    TMP DP  RH WIND       PRES   REMARKS
PALM SPRINGS   CLEAR     68  37  32 SW3       29.92F
PALM DESERT      N/A     65  46  49 CALM      29.80F
THERMAL        CLEAR     54  39  57 CALM      29.87F
BLYTHE         CLEAR     60  30  32 CALM      29.90F
IMPERIAL AP    CLEAR     66  38  35 W6        29.89F
EL CENTRO NAS  CLEAR     63  33  32 W9        29.90F
YUMA AZ        CLEAR     62  35  36 S5        29.91
MEXICALI         N/A    N/A N/A N/A MISG        N/A

$$

UPPER DESERT

CITY           SKY/WX    TMP DP  RH WIND       PRES   REMARKS
VICTORVILLE AP CLEAR     55  34  44 SW10      30.02F
HESPERIA         N/A     54  33  44 W3        30.11F
PALMDALE       CLEAR     54  37  52 S3        30.03F
LANCASTER      CLEAR     61  40  45 W20G29    30.02F
EDWARDS AFB    CLEAR     56  38  52 SW9       29.98F
DAGGETT        CLEAR     59  38  45 W13       29.97F
29 PALMS N     PTCLDY    59  26  28 NW8       30.03F
NEEDLES        CLEAR     63  25  23 CALM      29.91F

$$

REGIONAL REPORTS

CITY           SKY/WX    TMP DP  RH WIND       PRES   REMARKS
SANTA BARBARA  CLEAR     54  53  97 CALM      29.97S
SANDBERG       CLEAR     54  40  59 NW28G35   30.11F
LAS VEGAS NV   PTCLDY    61  26  26 SW5       29.92F
PHOENIX AZ     CLEAR     65  29  25 E8        29.93F
TIJUANA        CLEAR     57  36  44 SE3       30.04S
ENSENADA NW      N/A     60  32  35 CALM      29.98F

$$

OFFSHORE ISLANDS

CITY           SKY/WX    TMP DP  RH WIND       PRES   REMARKS
CATALINA ARPT  CLEAR     65  25  22 CALM      30.03F
SAN NICOLAS IS CLEAR    N/A N/A N/A NW20      29.99F

$$

MARINE AND OFFSHORE BUOY REPORTS

STATION/POSITION SKY/WX   TEMP    WIND        PRES    VSBY  SWELL
                          AIR SEA DIR/SP/G                  HT/PER/DIR
                          (F)     (DEG/KT/KT) (MB)    (MI)  (FT/S/D)
TANNER BANKS               59 58  300/ 16/ 19 1016.5         10/320/16
S CLEMENTE BASIN           60 61  230/  6/  8 1016.1          7/290/16
SAN NICOLAS IS.               57                N/A           7/290/17
SO. S. ROSA ISLA           55 55  310/ 25/ 33 1015.0S         7/300/16
W. S. BARBARA CH           55 54  330/ 23/ 27 1016.2F         7/250/16
M. S. BARBARA CH                                N/A           5/230/15
S. MONICA BASIN            60 61   20/  2/  4 1015.0F         5/260/16
S PEDRO CHANNEL               60                N/A           3/280/17
CMP PENDLETON NS              61                N/A           2/240/15
OCEANSIDE OFFSHR              62                N/A           2/260/17
TORREY PINES OTR              62                N/A           3/270/15
POINT LOMA SOUTH              63                N/A           5/280/15

$$





USA.gov is the U.S. government's official web portal to all federal, state and local government web resources and services.